Location: *
(65.1175°N, 13.6547°E)
Time: 15:04:06
(UTC+00:00)

Daily predictions for brighter satellites

Satellite Brightness Start Highest point End
(mag) Time Altitude Azimuth Time Altitude Azimuth Time Altitude Azimuth
Cosmos 2278 4.5 18:42:34 10° WNW 18:48:04 48° N 18:53:34 10° E
MetOp-A 4.4 18:43:59 10° SSE 18:49:23 79° WSW 18:54:47 10° NNW
Cosmos 2058 4.2 18:47:59 10° N 18:51:27 25° NE 18:54:55 10° ESE
Cosmos 1241 Rocket 4.5 18:46:30 10° WSW 18:52:42 79° SSE 18:58:59 10° ENE
Cosmos 1805 4.0 18:48:58 10° SSW 18:52:51 60° WNW 18:56:45 10° NNE
USA 186 3.5 18:50:40 10° SSW 18:53:49 37° W 18:56:52 10° NNW
Cosmos 2184 Rocket 4.1 18:52:37 10° NNW 18:59:02 87° WSW 19:05:20 10° SSE
Iridium 4 Rocket 4.4 18:55:22 10° N 18:59:10 25° ENE 19:02:45 10° ESE
Meteor 1-11 4.3 18:53:38 10° NNW 18:59:30 75° ENE 19:05:16 10° SSE
SeaSat 1 2.4 18:54:56 10° NE 18:59:54 74° SE 19:04:52 10° SW
Cosmos 1606 Rocket 4.4 18:56:39 10° SSE 19:00:34 31° E 19:04:32 10° NNE
Cosmos 1656 4.1 18:55:40 10° NW 19:01:21 59° NNE 19:07:00 10° ESE
Cosmos 1726 2.8 18:59:22 10° SSE 19:02:48 35° E 19:06:14 10° NNE
Landsat 7 4.1 18:58:57 10° SE 19:03:36 56° ENE 19:08:18 10° NNW
Cosmos 921 Rocket 3.0 18:59:57 10° NNW 19:04:11 70° NE 19:08:22 10° SE
SPOT 1/Viking Rocket 3.8 18:59:07 10° SE 19:04:13 56° ENE 19:09:22 10° NNW
Cosmos 1437 3.1 19:01:29 10° NNW 19:04:31 59° WSW 19:07:30 10° S
Cosmos 2369 Rocket 3.5 19:00:21 10° NW 19:05:38 39° WSW 19:10:52 10° S
SPOT 5 3.3 19:02:56 10° ESE 19:07:02 40° NE 19:11:07 10° NNW
Cosmos 2218 Rocket 4.5 19:01:16 10° NNW 19:07:12 46° ENE 19:13:08 10° SE
Cosmos 2084 3.8 19:06:33 10° SW 19:10:56 53° SSE 19:15:18 10° E
SL-24 R/B 4.4 19:06:33 10° NNE 19:11:22 52° E 19:15:33 10° S
Meteor 2-15 Rocket 4.4 19:07:15 10° S 19:13:17 72° ESE 19:19:22 10° NNE
CZ-2C R/B 3.9 19:09:15 10° NNE 19:13:58 54° ESE 19:18:37 10° S
Cosmos 1825 4.1 19:12:14 10° N 19:14:57 18° NE 19:17:40 10° E
Cosmos 2228 3.6 19:11:17 10° SSE 19:15:14 36° E 19:19:14 10° NNE
Cosmos 1733 4.1 19:12:28 10° SW 19:16:11 53° WNW 19:19:56 10° NNE
Cosmos 1470 2.8 19:12:34 10° SSW 19:16:29 89° ESE 19:20:27 10° NNE
Resurs 1-3 4.3 19:13:09 10° S 19:17:29 56° WSW 19:21:51 10° NNW
H-2A R/B 3.7 19:12:49 10° SSW 19:17:37 36° W 19:22:19 10° NNW
MOS 1 Rocket 3.8 19:13:12 10° NNE 19:18:11 48° E 19:23:23 10° S
Meteor 2-10 4.4 19:13:39 10° S 19:18:57 52° E 19:24:26 10° NNE
Cosmos 1943 Rocket 4.0 19:14:26 10° NW 19:19:06 28° WSW 19:23:46 10° SSW
DMSP B5D2-2 4.3 19:14:07 10° NNE 19:19:13 50° E 19:24:17 10° S
Cosmos 1408 4.2 19:17:35 10° N 19:20:26 21° NE 19:23:09 11° ESE
Cosmos 2154 Rocket 4.1 19:14:05 10° NNW 19:20:30 90° WSW 19:26:53 10° SSE
COSMOS 2428 3.2 19:17:07 10° WSW 19:22:49 66° NNW 19:28:33 10° NE
RESURS DK-1 2.9 19:18:56 10° WNW 19:23:04 55° NNE 19:27:08 10° E
Meteor 2-15 4.5 19:17:14 10° SSW 19:23:19 89° E 19:29:26 10° NNE
Cosmos 1300 4.4 19:21:31 12° ESE 19:23:39 17° E 19:26:14 10° NE
Cosmos 1908 3.9 19:22:08 10° SSE 19:25:40 34° E 19:29:13 10° NNE
Cosmos 2344 4.0 19:18:58 10° W 19:26:55 81° S 19:37:20 10° E
Cosmos 2369 4.1 19:22:11 10° WNW 19:27:49 58° NNE 19:33:24 10° ESE
Cosmos 2219 Rocket 2.8 19:22:28 10° WSW 19:28:06 62° NNW 19:33:42 10° NE
Cosmos 2322 4.5 19:22:38 10° W 19:28:14 56° NNW 19:33:54 10° ENE
Cosmos 2315 Rocket 4.2 19:23:08 10° SSW 19:29:30 81° WNW 19:35:57 10° NNE
IGS 5A 3.5 19:26:20 10° SSE 19:30:29 73° ENE 19:34:41 10° NNW
Cosmos 1269 Rocket 4.0 19:26:32 10° SW 19:31:52 85° SE 19:37:14 10° NE
NOSS 2-1 (C) 3.5 19:28:16 10° WSW 19:31:53 56° SSE 19:36:27 10° E
Resurs 01 Rocket 2.3 19:27:59 10° S 19:32:20 56° WSW 19:36:43 10° NNW
ERS-1 Rocket 3.1 19:28:18 10° SE 19:33:16 67° ENE 19:38:17 10° NNW
Aureole 3 4.1 19:28:35 10° SSW 19:33:27 85° ESE 19:39:45 10° NNE
Cosmos 220 Rocket 4.1 19:29:16 10° NW 19:33:33 68° NE 19:37:13 14° SE
USA 245 4.5 19:28:47 10° SSE 19:34:22 90° WSW 19:40:48 10° NNW
COSMOS 2455 3.2 19:28:36 10° WNW 19:34:34 62° SW 19:40:06 12° SE
Cosmos 192 4.5 19:31:07 10° NW 19:36:05 71° NE 19:40:22 14° SE
NOSS 2-1 (D) 3.5 19:32:27 10° WSW 19:36:05 58° SSE 19:40:42 10° E
SL-8 Rocket 4.1 19:30:09 10° NNW 19:36:26 66° ENE 19:42:36 11° SSE
Cosmos 1943 3.9 19:33:54 10° S 19:38:51 32° ESE 19:43:50 10° NE
Cosmos 1455 Rocket 4.4 19:36:27 10° SW 19:40:38 44° WNW 19:44:54 10° NNE
Cosmos 2251 Rocket 3.8 19:35:47 10° S 19:40:57 49° ESE 19:46:09 10° NE
Cosmos 1758 3.8 19:38:38 10° SSW 19:42:43 66° WNW 19:46:49 10° NNE
Cosmos 1980 4.0 19:37:19 10° WSW 19:43:01 76° NW 19:48:46 10° NE
Nadezhda 1 Rocket 4.1 19:36:48 10° S 19:43:05 61° E 19:49:20 10° NNE
Cosmos 1076 Rocket 3.8 19:39:50 10° NNW 19:44:01 51° ENE 19:47:20 15° SE
Terra 2.1 19:41:18 14° SE 19:45:21 57° ENE 19:50:03 10° NNW
Cosmos 2366 rocket 4.1 19:39:22 10° NNW 19:45:31 64° ENE 19:51:01 13° SSE
Cosmos 2058 Rocket 3.6 19:42:30 10° SSE 19:46:45 41° E 19:51:00 10° NNE
Cosmos 494 Rocket 4.3 19:43:07 10° SW 19:48:19 71° NW 19:53:36 10° NE
Cosmos 1697 Rocket 3.0 19:46:10 10° NW 19:51:51 66° NNE 19:56:49 14° ESE
Cosmos 1461 4.1 19:48:34 10° WNW 19:52:37 36° SW 19:56:10 13° SSE
ALOS 2 4.4 19:50:45 10° E 19:54:07 22° NE 19:57:30 10° N
Cosmos 2151 3.8 19:50:24 10° N 19:54:19 36° ENE 19:57:07 17° ESE
NOSS 7 (E) 4.5 19:52:29 10° W 19:55:34 60° S 19:58:04 18° ESE
ATLAS CENTAUR R/B 1.2 19:53:32 10° W 19:57:46 81° S 20:00:55 16° ESE
SL-16 R/B 2.2 19:52:09 10° SW 19:57:49 81° SE 20:03:31 10° NE
SL-16 R/B 3.1 19:52:39 10° WNW 19:58:11 48° N 20:03:42 10° E
Cosmos 1763 Rocket 3.5 19:58:50 10° NW 20:04:09 78° NE 20:08:05 18° SE
Cosmos 2333 Rocket 3.0 19:58:39 10° W 20:04:14 53° NNW 20:09:48 10° ENE
Cosmos 1340 Rocket 3.2 20:01:52 13° SSE 20:05:18 43° E 20:09:09 10° NNE
CZ-4C R/B 2.6 19:59:38 10° W 20:05:46 77° S 20:12:54 11° ESE
ERBS 3.9 20:03:11 10° SW 20:05:47 21° S 20:06:42 18° SSE
CARTOSAT-1 3.5 20:03:37 15° SSE 20:07:11 89° ENE 20:11:33 10° NNW
Cosmos 1766 Rocket 4.4 20:03:07 10° N 20:07:21 38° ENE 20:10:13 18° ESE
CZ-2C R/B 2.5 20:02:14 10° NNE 20:07:29 80° ESE 20:12:40 10° SSW
NOSS 0 Rocket 4.3 20:03:14 10° WSW 20:09:26 70° NNW 20:15:38 10° ENE
Cosmos 2360 Rocket 3.2 20:04:44 10° WNW 20:10:12 47° N 20:15:39 10° ENE
Cosmos 1726 Rocket 3.5 20:06:21 10° S 20:10:46 76° ESE 20:15:13 10° NNE
Cosmos 2322 Rocket 3.1 20:05:34 10° WNW 20:11:05 48° N 20:16:35 10° E
Cosmos 1174 4.0 20:07:50 10° WNW 20:11:13 52° SSW 20:13:43 21° SE
Iridium 2 4.1 20:15:01 21° SSE 20:17:12 44° E 20:20:52 10° NNE
Cosmos 2360 4.4 20:11:50 10° NW 20:17:33 70° NNE 20:22:07 16° ESE
Cosmos 1980 Rocket 2.5 20:12:35 10° NW 20:18:11 63° NNE 20:22:52 15° ESE
Cosmos 1603 3.8 20:14:29 10° SSW 20:19:57 54° SE 20:25:26 10° NE
Cosmos 1570 Rocket 4.1 20:15:57 10° NW 20:21:22 77° NE 20:25:07 20° SE
Meteor 2-12 Rocket 4.4 20:15:13 10° NNW 20:21:25 79° ENE 20:26:10 18° SSE
Cosmos 1953 3.2 20:18:07 10° SW 20:22:00 51° WNW 20:25:57 10° NNE
Meteor 1-16 Rocket 4.2 20:18:38 10° SSW 20:24:05 84° WNW 20:29:45 10° NNE
NOSS 2-1 (E) 3.5 20:20:25 10° WSW 20:24:15 69° S 20:29:18 10° E
Cosmos 1892 2.7 20:20:38 10° NNW 20:24:32 77° ENE 20:26:51 23° SSE
Cosmos 2237 Rocket 2.8 20:20:30 10° WSW 20:26:06 61° NNW 20:31:44 10° NE
SAR-Lupe-2 3.5 20:24:26 10° NNE 20:28:04 83° ESE 20:31:40 10° SSW
Cosmos 1821 Rocket 4.2 20:22:37 10° NNW 20:28:54 60° ENE 20:33:20 20° SE
Cosmos 2058 2.9 20:24:45 10° NNW 20:28:54 86° WSW 20:31:35 21° SSE
Cosmos 2341 Rocket 4.4 20:22:49 10° NNW 20:29:05 64° W 20:35:23 10° S
Cosmos 1812 Rocket 4.2 20:27:04 23° SE 20:29:05 35° E 20:33:04 10° NNE
ATLAS 2AS CENTAUR R/B 4.1 20:22:37 10° WNW 20:29:13 32° WSW 20:35:13 11° S
USA 234 3.9 20:23:49 10° E 20:29:30 30° SSE 20:35:09 10° SSW
Cosmos 540 Rocket 3.6 20:26:10 10° NW 20:31:24 73° NE 20:34:50 22° SE
Cosmos 2278 3.8 20:27:12 10° NW 20:32:54 74° NNE 20:37:03 19° ESE
Cosmos 841 Rocket 3.5 20:30:25 10° NW 20:35:45 80° NE 20:39:10 23° SE
Cosmos 1455 3.7 20:35:23 20° ESE 20:36:06 21° E 20:39:02 10° NE
Cosmos 489 Rocket 4.5 20:30:22 10° NW 20:36:38 88° SW 20:40:55 22° SE
Cosmos 1818 4.2 20:32:31 10° SSW 20:37:18 32° SE 20:42:06 10° ENE
SeaSat 1 3.3 20:32:34 10° NE 20:37:24 53° NNW 20:42:13 10° W
Cosmos 1140 Rocket 4.0 20:34:21 19° SSE 20:37:32 37° ESE 20:42:17 10° NE
Cosmos 1726 3.2 20:34:19 10° SW 20:37:58 47° WNW 20:41:37 10° N
Cosmos 1606 Rocket 4.0 20:33:46 10° SSW 20:38:11 66° WNW 20:42:40 10° NNE
Iridium 4 Rocket 3.1 20:35:13 10° N 20:39:49 85° W 20:42:48 20° S
Cosmos 468 Rocket 4.2 20:36:56 10° NW 20:42:09 67° WSW 20:45:25 22° SSE
Cosmos 921 Rocket 4.4 20:38:30 10° NW 20:42:14 31° WSW 20:45:26 13° SSW
SPOT 1/Viking Rocket 4.4 20:38:56 11° S 20:43:49 47° W 20:48:54 10° NNW
Cosmos 1934 Rocket 4.4 20:38:38 10° NNW 20:44:53 54° ENE 20:48:56 22° SE
SPOT 5 3.1 20:41:53 17° S 20:45:08 54° WSW 20:49:25 10° NNW
Cosmos 1656 3.8 20:39:33 10° NW 20:45:16 71° SW 20:48:50 24° SSE
Cosmos 2084 3.5 20:45:47 10° W 20:50:15 66° S 20:53:10 21° ESE
Cosmos 1825 2.2 20:47:23 10° NNW 20:51:12 67° ENE 20:52:48 32° SE
Cosmos 2228 3.7 20:48:27 10° SW 20:52:42 55° WNW 20:57:00 10° NNE
Cosmos 2218 Rocket 4.3 20:46:58 10° NNW 20:53:04 65° W 20:58:11 15° S
Cosmos 2208 Rocket 4.0 20:47:52 10° NW 20:53:06 86° SW 20:56:06 26° SE
Cosmos 407 Rocket 3.6 20:49:53 11° SSW 20:54:36 54° ESE 20:59:37 10° NE
Cosmos 1408 Rocket 4.0 20:50:17 10° NNW 20:54:42 53° ENE 20:56:52 28° SE
Mayak -0.3 20:51:21 10° NNE 20:55:06 31° E 20:56:10 27° ESE
Cosmos 1408 2.5 20:52:20 10° NNW 20:55:59 90° E 20:57:29 34° SSE
MOS 1 Rocket 4.3 20:51:35 10° NNE 20:56:35 55° WNW 21:01:47 10° SW
Cosmos 1633 4.2 20:54:00 10° N 20:57:01 24° NE 20:58:28 19° E
ATLAS 5 CENTAUR R/B 3.5 21:00:09 16° E 21:00:09 16° E 21:01:56 10° E
Cosmos 1300 2.6 20:56:26 23° S 20:58:46 81° ESE 21:02:38 10° NNE
RESURS DK-1 2.5 20:57:07 10° NW 21:01:16 65° SW 21:03:01 32° SSE
Cosmos 1908 4.1 20:57:39 10° SW 21:01:25 50° WNW 21:05:15 10° NNE
Aureole 1 Rocket 4.0 20:55:55 10° SSW 21:03:05 66° ESE 21:08:36 10° NE
Cosmos 614 Rocket 3.9 20:58:20 10° SSW 21:03:32 66° ESE 21:08:43 10° NE
COSMOS 2428 3.7 21:02:19 10° WNW 21:07:52 48° N 21:13:25 10° ENE
Resurs 01 Rocket 4.3 21:07:13 10° WSW 21:09:48 15° W 21:12:23 10° NW
SWARM C 4.5 21:09:27 43° SSE 21:10:21 69° E 21:13:42 10° N
SWARM A 4.1 21:09:29 42° SSE 21:10:29 76° E 21:13:51 10° N
Cosmos 2369 3.7 21:06:36 10° NW 21:12:17 73° SW 21:15:22 28° SSE
ERS-1 Rocket 4.1 21:08:18 13° SSW 21:12:26 37° W 21:17:07 10° NNW
Meteor 2-3 Rocket 3.8 21:06:58 10° NNW 21:12:48 72° ENE 21:16:01 27° SE
Cosmos 2219 Rocket 3.2 21:07:23 10° WNW 21:12:51 47° N 21:18:18 10° ENE
Cosmos 1833 Rocket 4.5 21:13:28 14° ESE 21:13:56 14° E 21:16:45 10° ENE
Elektron 3 4.3 21:10:47 10° WSW 21:14:52 43° S 21:15:09 42° SSE
Cosmos 2181 Rocket 4.0 21:09:35 14° SSW 21:15:11 88° ESE 21:21:25 10° NNE
Cosmos 1954 Rocket 4.3 21:13:13 26° S 21:15:44 46° ESE 21:20:43 10° NE
COSMOS 2455 4.3 21:14:48 10° WNW 21:19:40 26° WSW 21:23:15 15° SSW
Okean 3 Rocket 3.6 21:15:42 10° NNW 21:20:06 73° WSW 21:22:10 31° S
USA 32 4.2 21:16:41 10° NNW 21:21:56 70° W 21:25:07 24° S
NOSS 2-1 (C) 3.5 21:18:13 10° W 21:22:10 71° S 21:25:58 18° ESE
Cosmos 1943 3.1 21:16:41 10° SW 21:22:23 83° SE 21:28:08 10° NE
Cosmos 2251 Rocket 4.0 21:17:52 10° WSW 21:23:14 64° NW 21:28:38 10° NE
Terra 2.8 21:20:11 18° SSW 21:23:19 41° W 21:27:52 10° NNW
Cosmos 2058 Rocket 3.9 21:20:19 10° SW 21:24:44 51° WNW 21:29:11 10° NNE
NOSS 2-1 (D) 3.5 21:22:25 10° W 21:26:23 70° S 21:30:05 19° ESE
ALOS 2 2.8 21:28:03 33° SE 21:29:52 64° ENE 21:34:15 10° NNW
ASTEX 1 3.4 21:28:22 30° S 21:30:54 88° W 21:35:55 10° N
SL-16 R/B 4.1 21:26:34 10° E 21:31:49 29° NNE 21:37:03 10° NNW
Cosmos 2151 3.4 21:27:43 10° NNW 21:31:52 56° W 21:33:42 30° SSW
MTI 3.6 21:30:02 10° NNE 21:33:10 90° ESE 21:33:47 55° SSW
Cosmos 1697 Rocket 2.9 21:30:19 10° NW 21:35:54 59° SW 21:38:33 31° SSE
ATLAS CENTAUR R/B 1.6 21:32:33 10° WNW 21:36:28 44° SSW 21:37:05 40° S
Cosmos 1356 Rocket 3.7 21:36:03 39° SSE 21:37:13 51° E 21:41:23 10° NNE
Cosmos 1238 Rocket 4.1 21:35:16 10° N 21:37:35 20° NE 21:38:17 18° ENE
Cosmos 1814 Rocket 4.3 21:32:25 10° NW 21:37:42 61° WSW 21:40:08 31° S
Cosmos 1023 Rocket 4.4 21:35:13 16° SSW 21:39:22 75° SE 21:44:31 10° NE
Spot 4 3.9 21:37:23 33° S 21:39:32 74° WSW 21:44:23 10° NNW
Cosmos 2344 4.2 21:32:53 10° WNW 21:41:13 64° SSW 21:49:12 21° SE
Cosmos 1340 Rocket 4.0 21:37:54 10° SW 21:41:49 43° WNW 21:45:43 10° NNE
SL-16 R/B 3.0 21:36:45 10° W 21:42:20 55° NNW 21:47:55 10° ENE
SL-16 R/B 2.4 21:37:17 10° NW 21:43:00 71° NNE 21:46:59 20° ESE
Cosmos 2221 3.8 21:44:00 24° ESE 21:44:52 26° E 21:48:31 10° NNE
Cosmos 1766 Rocket 4.0 21:41:02 10° NNW 21:45:28 57° W 21:47:23 31° SSW
Cosmos 1763 Rocket 4.5 21:40:54 10° NW 21:45:41 36° WSW 21:48:06 24° SSW
Cosmos-2242 3.0 21:44:51 40° SSE 21:46:14 65° E 21:50:34 10° NNE
CZ-2C R/B 4.1 21:42:47 10° NNE 21:47:31 36° NW 21:52:12 10° WSW
Cosmos 1535 Rocket 4.4 21:41:45 10° NNW 21:47:55 86° WSW 21:51:09 30° S
Nadezhda 3 Rocket 4.0 21:45:42 29° S 21:49:06 68° E 21:55:21 10° NNE
Cosmos 2333 Rocket 3.1 21:43:50 10° WNW 21:49:22 50° N 21:54:53 10° E
Helios 1A 3.0 21:50:06 40° SE 21:51:30 72° ENE 21:55:43 10° NNW
Cosmos 1862 4.2 21:47:44 10° N 21:51:37 40° ENE 21:53:01 30° ESE
CZ-4C R/B 2.9 21:47:49 10° WNW 21:54:08 55° SSW 21:58:04 28° SSE
Sich 1 3.8 21:50:15 10° NNW 21:54:33 44° ENE 21:56:20 29° ESE
Cosmos 2360 Rocket 2.7 21:49:26 10° WNW 21:55:02 59° NNE 22:00:20 11° ESE
Cosmos 2322 Rocket 2.4 21:50:08 10° NW 21:55:51 72° NNE 21:59:45 21° ESE
Cosmos 1500 Rocket 3.4 21:55:46 10° NNW 22:00:08 86° ENE 22:01:29 44° SSE
Cosmos 1850 Rocket 4.3 21:58:45 36° SSE 22:00:12 45° ESE 22:05:08 10° NE
Cosmos 1805 Rocket 3.9 21:55:48 10° NNW 22:00:12 57° ENE 22:01:47 36° SE
Cosmos 1340 3.3 21:57:35 10° NNW 22:01:18 48° ENE 22:02:20 37° ESE
Cosmos 2360 4.5 21:56:18 10° NW 22:01:51 54° SW 22:04:07 33° S
Cosmos 1980 Rocket 2.3 21:56:47 10° NW 22:02:20 62° SW 22:04:38 35° SSE
Cosmos 1190 Rocket 4.0 21:57:25 10° SW 22:02:45 83° NW 22:08:05 10° NE
Cosmos 1603 4.0 21:58:28 10° WSW 22:04:06 69° NNW 22:09:44 10° NE
NOSS 3-3 (A) 4.1 21:58:10 10° WSW 22:04:30 69° SSE 22:11:48 10° ENE
NOSS 3-3 (C) 4.1 21:58:16 10° WSW 22:04:36 69° SSE 22:11:54 10° ENE
Cosmos 1346 Rocket 3.6 22:01:44 10° NNW 22:05:35 44° ENE 22:06:55 32° ESE
Cosmos 1812 Rocket 4.1 22:04:11 22° SW 22:06:51 56° WNW 22:11:09 10° NNE
Cosmos 2237 Rocket 3.2 22:05:31 10° WNW 22:11:00 47° N 22:16:29 10° ENE
Cosmos 1459 Rocket 4.4 22:04:58 10° NNW 22:11:18 58° ENE 22:14:53 26° SE
Cosmos 1455 2.1 22:10:17 47° SSW 22:11:18 82° WNW 22:15:11 10° NNE
Meteor 2-10 Rocket 3.5 22:09:34 33° S 22:11:58 81° ESE 22:17:25 10° NNE
Cosmos 540 Rocket 4.2 22:07:59 10° NW 22:12:49 40° WSW 22:14:39 30° SSW
USA 234 3.5 22:07:30 10° E 22:13:42 43° S 22:19:54 10° WSW
SeaSat 1 3.9 22:09:51 10° ENE 22:14:26 39° N 22:19:02 10° WNW
NOSS 2-1 (E) 3.8 22:10:27 10° W 22:14:38 63° SSW 22:17:31 27° ESE
Cosmos 2278 4.1 22:11:31 10° NW 22:16:56 48° WSW 22:18:57 34° S
Cosmos 2100 Rocket 4.2 22:11:07 10° NNW 22:17:16 63° ENE 22:20:33 29° SE
Cosmos 841 Rocket 4.5 22:12:32 10° NW 22:17:20 36° WSW 22:19:15 27° SSW
Cosmos 773 Rocket 4.3 22:12:49 10° NW 22:17:59 64° NE 22:21:05 24° ESE
Cosmos 1140 Rocket 3.6 22:14:16 12° SW 22:19:06 76° NW 22:24:19 10° NE
Cosmos 1818 3.5 22:14:53 10° SW 22:20:19 68° SSE 22:25:45 10° ENE
Cosmos 1633 Rocket 3.8 22:17:51 10° NNW 22:22:11 47° ENE 22:23:53 31° ESE
Cosmos 1400 Rocket 4.1 22:25:03 26° ESE 22:25:27 27° E 22:28:51 10° NE
Thor Agena Rocket 3.4 22:20:56 10° NNE 22:26:01 88° ESE 22:28:20 34° SSW
Cosmos 1825 3.8 22:23:17 10° NNW 22:26:27 25° W 22:27:37 21° WSW
EO 1 Del DPAF 3.2 22:23:32 10° NNE 22:27:20 78° WNW 22:28:18 48° SW
Cosmos 1241 Rocket 4.4 22:22:02 10° WNW 22:28:16 76° SSW 22:32:33 22° SE
Cosmos 1743 Rocket 3.8 22:24:26 10° NNW 22:28:50 60° W 22:30:08 42° SSW
Cosmos 2084 3.8 22:25:13 10° W 22:29:30 46° SSW 22:29:42 45° SSW
Cosmos 676 Rocket 4.0 22:26:14 18° SW 22:30:10 82° NW 22:35:28 10° NE
Cosmos 1934 Rocket 4.4 22:24:07 10° NNW 22:30:18 56° W 22:33:28 28° SSW
Mayak -0.9 22:26:51 10° NNE 22:31:01 63° WNW 22:32:44 33° SW
Cosmos 1633 2.4 22:28:39 10° NNW 22:32:14 72° WSW 22:32:36 64° SSW
Cosmos 2082 Rocket 3.3 22:31:52 25° SE 22:32:50 26° ESE 22:37:27 10° NE
Cosmos 1605 Rocket 4.0 22:27:03 10° NNW 22:33:07 69° W 22:35:57 33° S
COSMOS 2406 3.6 22:32:52 37° SSE 22:34:29 46° ESE 22:39:56 10° NE
SME Rocket 4.3 22:29:24 10° NNE 22:34:33 33° E 22:35:44 29° ESE
Cosmos 2173 Rocket 4.0 22:30:18 10° NNW 22:36:26 72° ENE 22:39:27 32° SSE
Cosmos 407 Rocket 4.0 22:31:36 10° WSW 22:36:41 58° NW 22:41:47 10° NE
YAOGAN 11 4.2 22:35:33 45° S 22:36:53 72° WSW 22:41:29 10° NNW
RESURS DK-1 4.1 22:35:39 10° WNW 22:38:40 20° WSW 22:38:55 20° WSW
ATLAS 5 CENTAUR R/B 2.0 22:41:37 44° SSE 22:42:08 46° SSE 22:47:10 10° ENE
Helios 1B rocket 3.8 22:38:50 10° NE 22:42:20 26° E 22:42:58 25° ESE
Cosmos 2237 4.3 22:36:59 10° NW 22:42:44 80° NE 22:46:50 20° ESE
CZ-2D R/B 4.5 22:44:06 10° NE 22:46:23 13° ENE 22:48:41 10° E
Aureole 1 Rocket 4.4 22:41:02 10° WSW 22:47:49 57° NW 22:53:01 10° NE
COSMOS 2428 3.2 22:47:17 10° WNW 22:52:59 60° NNE 22:58:39 10° ESE
Cosmos 1741 Rocket 4.0 22:50:37 34° SSW 22:52:59 79° SE 22:58:21 10° NE
Cosmos 1833 Rocket 3.2 22:55:08 36° SSE 22:56:34 43° ESE 23:01:52 10° NE
Cosmos 2219 Rocket 2.7 22:52:00 10° NW 22:57:38 61° NNE 23:03:12 10° ESE
Cosmos 1954 Rocket 4.3 22:53:24 15° WSW 22:57:43 65° NW 23:02:56 10° NE
Cosmos 2322 3.9 22:52:29 10° NW 22:58:13 71° NNE 23:03:57 10° ESE
Cosmos 2333 4.4 22:56:40 10° NW 23:02:19 71° NNE 23:07:56 10° ESE
Terra 4.3 23:00:37 10° W 23:02:23 12° WNW 23:04:10 10° NW
Cosmos 2061 Rocket 4.0 22:56:11 10° NNW 23:02:26 77° ENE 23:05:38 31° SSE
Spot 1 4.0 23:02:49 44° SE 23:04:09 78° ENE 23:08:21 10° NNW
Cosmos 1666 Rocket 3.4 23:00:13 10° NNW 23:04:35 87° WSW 23:05:39 51° SSE
Cosmos 1933 Rocket 4.2 23:00:21 10° NNW 23:04:40 50° ENE 23:06:32 30° ESE
ALOS 2 3.7 23:05:26 29° SW 23:06:31 33° W 23:10:33 10° NNW
Cosmos 1943 3.9 23:01:15 10° W 23:06:51 54° NNW 23:12:30 10° ENE
CZ-4C R/B 4.0 23:05:48 31° ESE 23:06:56 42° ENE 23:10:17 10° NNW
Meteor 1-29 4.5 23:04:12 10° NE 23:07:04 25° E 23:07:09 24° E
Cosmos 1842 Rocket 3.5 23:06:25 48° SSW 23:07:37 83° WNW 23:12:00 10° NNE
Cosmos 1315 Rocket 4.0 23:09:38 28° ESE 23:10:23 30° E 23:14:00 10° NNE
Cosmos 923 Rocket 4.4 23:06:15 10° NW 23:11:30 62° NE 23:15:53 15° ESE
NOSS 2-1 (C) 4.2 23:08:18 10° W 23:12:28 45° SSW 23:13:18 42° S
Cosmos 1980 4.5 23:07:10 10° WNW 23:12:46 53° NNE 23:18:20 10° E
ATLAS CENTAUR R/B 3.5 23:12:07 10° W 23:13:15 14° WSW 23:13:15 14° WSW
SL-16 R/B 3.0 23:09:54 18° SE 23:14:37 61° NE 23:20:45 10° NNW
NOSS 2-1 (D) 4.2 23:12:30 10° WNW 23:16:41 44° SSW 23:17:24 41° S
Cosmos 1238 Rocket 2.5 23:14:34 10° NNW 23:17:11 54° WNW 23:17:11 54° WNW
Cosmos 1869 3.2 23:18:07 60° S 23:18:47 84° ESE 23:22:49 10° NNE
Cosmos 1697 Rocket 4.2 23:14:51 10° WNW 23:18:55 21° WSW 23:20:16 19° WSW
ERS-2 4.3 23:16:21 10° E 23:19:19 24° NE 23:22:17 10° N
Intercosmos 25 3.3 23:19:38 51° WSW 23:20:04 57° WNW 23:23:16 10° NNE
Cosmos 1441 Rocket 4.4 23:16:49 10° NNW 23:20:26 37° ENE 23:22:14 23° ESE
Cosmos 2221 2.5 23:20:50 46° SSW 23:22:05 78° WNW 23:26:30 10° NNE
TRAILBLAZER 4.5 23:18:58 10° W 23:23:37 84° S 23:28:15 10° E
SL-24 R/B - RUBIN 2 4.4 23:18:00 12° WSW 23:23:46 74° SSE 23:30:27 10° ENE
Cosmos-2242 4.4 23:21:41 19° WSW 23:24:09 33° NW 23:28:08 10° N
Nimbus 7 Rocket 4.4 23:20:38 10° NNE 23:26:32 81° WNW 23:29:32 31° SW
SL-16 R/B 2.4 23:21:34 10° NW 23:27:04 52° SW 23:28:49 38° S
SL-16 R/B 3.2 23:21:49 10° WNW 23:27:20 48° N 23:32:50 10° E
Helios 1A 4.2 23:26:43 26° WSW 23:27:27 28° W 23:31:08 10° NNW
Cosmos 1862 3.8 23:24:11 10° NNW 23:28:05 46° W 23:28:41 42° WSW
MOZ.5/SAFIR/RUBIN 5/SL-8 4.2 23:26:24 27° SE 23:28:53 62° ENE 23:33:37 10° NNW
Landsat 4 3.6 23:26:06 10° NNE 23:29:55 83° WNW 23:30:37 58° SSW
IRAS Rocket 4.4 23:28:27 37° SSW 23:30:32 59° WSW 23:36:08 10° NNW
Cosmos 1680 Rocket 3.8 23:25:43 10° NW 23:30:56 65° NE 23:35:48 12° ESE
Meteor 1-25 Rocket 4.3 23:25:32 10° NNW 23:31:16 81° ENE 23:34:15 30° SSE
Cosmos 1538 Rocket 3.9 23:26:46 10° NW 23:32:03 77° SW 23:34:23 34° SSE
PSLV R/B 4.2 23:28:05 10° NNE 23:32:17 45° E 23:33:27 37° SE
Sich 1 3.6 23:28:02 10° NNW 23:32:19 47° W 23:33:17 40° SW
Cosmos 2333 Rocket 2.3 23:28:33 10° NW 23:34:16 78° NE 23:39:56 10° ESE
Cosmos 1328 Rocket 4.5 23:33:44 31° SE 23:34:58 37° E 23:38:58 10° NNE
Cosmos 1340 3.5 23:33:23 10° NNW 23:36:52 35° W 23:37:06 35° WSW
Cosmos 1805 Rocket 4.5 23:33:52 10° NNW 23:37:57 36° W 23:38:55 32° WSW
Cosmos 2360 Rocket 2.1 23:33:39 10° NW 23:39:17 70° SW 23:42:04 30° SSE
Cosmos 2322 Rocket 2.4 23:34:21 10° NW 23:39:50 50° WSW 23:41:33 38° S
CZ-4C R/B 3.8 23:36:13 10° WNW 23:41:53 28° SW 23:43:14 27° SW
Cosmos 1346 Rocket 3.4 23:38:13 10° NNW 23:41:59 41° W 23:42:25 40° WSW
Cosmos 1850 Rocket 4.3 23:39:01 23° WSW 23:42:14 65° NW 23:47:26 10° NE
NOSS 0 Rocket 4.1 23:37:34 10° WNW 23:43:47 73° NNE 23:49:58 10° ESE
Cosmos 1980 Rocket 3.6 23:41:17 10° WNW 23:45:28 22° WSW 23:46:23 21° WSW
Cosmos 1455 4.4 23:45:10 13° W 23:47:32 21° NW 23:50:33 10° N
Cosmos 1470 Rocket 3.5 23:44:07 10° NNW 23:48:34 74° WSW 23:49:45 47° S
Cosmos 1802 Rocket 4.1 23:43:39 10° NNW 23:49:52 62° W 23:52:36 34° SSW
Cosmos 1486 Rocket 4.2 23:49:00 38° S 23:50:46 58° ESE 23:55:58 10° NE
SeaSat 1 3.5 23:46:42 10° E 23:51:26 47° NNE 23:56:11 10° NW
